Content
SEND FEEDBACK

Daily
Averages
Monthly
Summary
Canada

BANFF, ALBERTA


Home > North America > Canada > Alberta
Elevation: 4583 feet     Latitude: 51 11N     Longitude: 115 34W

WEATHER
 
SELECT A DAY
Number of Records: 132,342;   Date Range: 1/1/95 - 8/27/14
 
SHARE

PRINT THIS DATA

[ ← Previous Day ]
WEATHER ALMANAC - APRIL 6, 2013
[ Next Day → ]
[ °C ]   °F
Weather ElementAverageHighLow
Temperature31.7 °F39.9 °F (4:00 pm)27.5 °F (8:00 am)
Dewpoint29 °F31.8 °F (9:00 pm)26.4 °F (6:00 am)
Humidity90.5 %99 % (6:00 pm)70 % (2:00 pm)
Barometer29.75 in29.79 in (8:00 am)29.68 in (4:00 pm)
Wind Speed3.1 mph6.9 mph (8:00 pm)
Weather ElementAverage
Wind DirectionESE (109.1 °)

Weather ElementTotal
Precipitation0.16 in
Heating Degree Days31.3 (Base 65)
Averaged from 23 records on April 6, 2013
WEATHER CONDITIONS BREAKOUT
WIND DIRECTION BREAKOUT
WEATHER BY HOUR - APRIL 6, 2013
[ °C ]   °F
Local TimeTemperatureDewpointHumidityBarometerVisibilityWind DirectionWind SpeedGust SpeedPrecipitationEventsConditions
1:00 AM30.0 °F28.6 °F94 %29.76 inENE (60°)1.2 mph
2:00 AM29.7 °F28.0 °F94 %29.77 inEast (80°)2.3 mph
3:00 AM29.3 °F27.7 °F94 %29.78 inCalm
4:00 AM28.2 °F26.8 °F94 %29.76 inEast (100°)1.2 mph
5:00 AM28.0 °F26.8 °F95 %29.76 inNorth (10°)2.3 mph
6:00 AM27.7 °F26.4 °F95 %29.76 inNNE (20°)2.3 mph
7:00 AM27.7 °F26.4 °F95 %29.77 inENE (70°)1.2 mph
8:00 AM27.5 °F26.4 °F96 %29.79 inENE (60°)2.3 mph
9:00 AM28.2 °F27.1 °F96 %29.78 inENE (60°)2.3 mph
10:00 AM28.8 °F27.5 °F95 %29.78 inESE (120°)3.5 mph
11:00 AM29.8 °F28.2 °F94 %29.78 inEast (100°)4.6 mph0.01 in
12:00 PM32.0 °F28.4 °F87 %29.76 inENE (70°)4.6 mph
1:00 PM34.2 °F28.8 °F81 %29.74 inENE (60°)4.6 mph
2:00 PM37.2 °F28.4 °F70 %29.70 inENE (70°)3.5 mph
3:00 PM36.5 °F31.3 °F81 %29.71 inESE (120°)2.3 mph
4:00 PM39.9 °F31.5 °F72 %29.68 inNE (40°)2.3 mph
5:00 PM37.8 °F31.5 °F78 %29.70 inEast (90°)2.3 mph
6:00 PM31.3 °F30.9 °F99 %29.75 inWSW (240°)2.3 mph0.06 in
7:00 PM33.1 °F31.6 °F94 %29.74 inSSW (210°)3.5 mph0.05 in
8:00 PM33.3 °F31.6 °F94 %29.74 inSW (230°)6.9 mph0.02 in
9:00 PM33.4 °F31.8 °F94 %29.75 inSW (230°)5.8 mph0.02 in
10:00 PM33.1 °F31.3 °F93 %29.75 inWSW (240°)4.6 mph
11:00 PM31.6 °F30.6 °F96 %29.75 inSW (230°)4.6 mph
Hourly data recorded from CWZG, located miles away from Banff, Alberta







STORIES FROM OUR PARTNERS